Regional Weather Roundup
Issued by NWS

Home | Current Version | Previous Version | Graphics & Text | Print | Product List | Glossary On
Versions: 1 2 3 4 5 6 7 8 9 10 11 12 13 14 15 16 17 18 19 20 21 22 23 24 25 26 27 28 29 30 31 32 33 34 35 36 37 38 39 40 41 42 43 44 45 46 47 48
000
ASUS45 KPSR 230310
RWRAZ

ARIZONA HOURLY REGIONAL WEATHER ROUNDUP
NATIONAL WEATHER SERVICE PHOENIX AZ
800 PM MST THU JUN 22 2017

NOTE: FAIR INDICATES FEW OR NO CLOUDS BELOW 12,000 FEET WITH NO
SIGNIFICANT WEATHER AND/OR OBSTRUCTIONS TO VISIBILITY.

AZZ001>003-036-230400-
NORTHWEST ARIZONA

CITY           SKY/WX    TMP DP  RH WIND       PRES   REMARKS
BULLHEAD CITY  CLEAR    113  28   5 S8        29.57S HX 105
KINGMAN        CLEAR     96  37  12 S12       29.86R
$$

AZZ004>008-015-016-018-230400-
NORTH CENTRAL ARIZONA

CITY           SKY/WX    TMP DP  RH WIND       PRES   REMARKS
GRAND CANYON   CLEAR     83  16   8 NW5       30.13R
PRESCOTT       CLEAR     87  28  12 SW10      30.02R
FLAGSTAFF      CLEAR     80  25  13 W7        30.17R
PAYSON         CLEAR     90  36  14 SW10      30.05R
PAGE           CLOUDY    95  27   9 NW7       29.86R HAZE
$$

AZZ009>014-017-230400-
NORTHEAST ARIZONA

CITY           SKY/WX    TMP DP  RH WIND       PRES   REMARKS
WINSLOW        PTCLDY    93  29  10 W15G23    29.94R
SAINT JOHNS    MOCLDY    90  26  10 NW9       30.00R
WINDOW ROCK    CLEAR     81  21  11 CALM      30.07R
SHOW LOW       PTCLDY    81  36  19 W9        30.11R
$$

AZZ540-542>544-546-548-230400-
GREATER PHOENIX AREA

CITY           SKY/WX    TMP DP  RH WIND       PRES   REMARKS
PHOENIX        PTCLDY   107  46  13 W9        29.63R HX 103
BUCKEYE        CLEAR    102  50  17 SW13G18   29.66R
GLENDALE       CLEAR    108  45  12 S10       29.65R HX 103
LUKE AFB       CLEAR    104  49  15 SW14      29.63R HX 101
DEER VALLEY    CLEAR    104  44  13 SW13      29.66R
SCOTTSDALE     CLEAR    106  42  11 W10       29.68R HX 101
MESA-FALCON    CLEAR    104  48  15 CALM      29.66  HX 100
MESA-GATEWAY   CLEAR    104  46  14 W6        29.69R HX 100
CHANDLER       CLEAR    104  46  14 SW12      29.66R HX 100
$$

AZZ539-553-230400-
SOUTHWEST MARICOPA COUNTY AND PINAL COUNTY

CITY           SKY/WX    TMP DP  RH WIND       PRES   REMARKS
CASA GRANDE    CLEAR    104  50  16 W14       29.69R HX 101
GILA BEND      CLEAR    102  55  20 SW14      29.66R HX 101
$$

AZZ503-504-507>509-230400-
SOUTHEAST ARIZONA

CITY           SKY/WX    TMP DP  RH WIND       PRES   REMARKS
TUCSON         CLEAR    102  42  13 N7        29.81R
DAVIS-MONTHAN  CLEAR    100  40  12 NW10      29.80R
RYAN FIELD     CLEAR    102  45  14 NW12G18   29.79R
NOGALES        CLOUDY    87  52  29 CALM      29.95F
SIERRA VISTA   CLOUDY    87  44  21 SW20      30.00R
DOUGLAS        MOCLDY    90  47  22 W18       29.91R
SAFFORD        PTCLDY    99  37  11 NW20G26   29.76R
$$

AZZ532-230400-
SOUTHWEST ARIZONA

CITY           SKY/WX    TMP DP  RH WIND       PRES   REMARKS
YUMA           CLEAR     95  60  31 S9        29.64R
$$

CAZ041-043-047-048-061-525>527-560>570-230400-
SOUTHERN CALIFORNIA

CITY           SKY/WX    TMP DP  RH WIND       PRES   REMARKS
DOWNTOWN L.A.  NOT AVBL
L.A. AIRPORT   MOCLDY    65  61  87 W10       29.83R
SAN DIEGO      CLOUDY    67  61  81 SW7       29.86R
BURBANK        CLEAR     71  59  65 S9        29.82R
ONTARIO        CLEAR     76  61  59 SW14      29.82R
RIVERSIDE      CLEAR     77  61  57 W10       29.81R
PALM SPRINGS   CLEAR    105  47  14 E7        29.66R HX 101
EL CENTRO NAS  CLEAR     93  61  34 SE9       29.62R
IMPERIAL       PTCLDY    98  60  28 SE10      29.60R
BLYTHE         CLEAR    100  66  32 S15       29.62R HX 104
NEEDLES        PTCLDY   113  29   5 SW8       29.61R HX 105
$$

NVZ020-UTZ003-230400-
SOUTHERN NEVADA-UTAH

CITY           SKY/WX    TMP DP  RH WIND       PRES   REMARKS
LAS VEGAS      PTCLDY   107  15   4 W15G23    29.69R
SALT LAKE CITY CLEAR     80  37  21 N7        30.01R
$$

NMZ009-TXZ055-230400-
NEW MEXICO-WEST TEXAS

CITY           SKY/WX    TMP DP  RH WIND       PRES   REMARKS
ALBUQUERQUE    PTCLDY    94  25   8 NW8       29.89R
EL PASO        MOCLDY   100  35  10 N9        29.77R
$$


........................KEY........................
SKY/WX - SKY CONDITION/WEATHER
TMP    - TEMPERATURE IN FAHRENHEIT
DP     - DEW POINT IN FAHRENHEIT
RH     - RELATIVE HUMIDITY IN PERCENT
WIND   - DIRECTION AND SPEED IN MILES PER HOUR (MPH)
VRB    - VARIABLE WIND DIRECTION
PRES   - MEAN SEA LEVEL PRESSURE IN INCHES OF MERCURY
         F - FALLING PRESSURE   R - RISING PRESSURE
         S - STEADY PRESSURE
VSB    - VISIBILITY IN MILES
HX     - HEAT INDEX IN FAHRENHEIT
WCI    - WIND CHILL INDEX IN FAHRENHEIT
TC     - TEMPERATURE IN CELSIUS WHICH IS ALSO KNOWN AS
         TEMPERATURE IN CENTIGRADE
AFB    - AIR FORCE BASE
         LUKE AFB IS LUKE AIR FORCE BASE
         DAVIS-MONTHAN IS DAVIS-MONTHAN AIR FORCE BASE
NAS    - NAVAL AIR STATION
         EL CENTRO NAS IS EL CENTRO NAVAL AIR STATION
N/A    - NOT AVAILABLE





USA.gov is the U.S. government's official web portal to all federal, state and local government web resources and services.